Flag for U.S.A. Weather past 2 weeks in Arlington, Texas, U.S.A.

Now
90 °F

Passing clouds.


Feels Like: 94 °F
Forecast: 76 / 93 °F
Wind: 9 mph from South

Location: Arlington Municipal Airport

Current Time: Jul 1, 2015 at 3:00:36 PM

Latest Report: Jul 1, 2015 at 1:53 PM


Visibility: 10 mi

Pressure: 29.97 "Hg

Humidity: 48%

Dew point: 68 °F

Location of ArlingtonLocation

Historic Weather in Arlington — Graph

°F

Arlington temperature yesterday

Maximum temperature yesterday: 94 °F (at 3:53 PM)
Minimum temperature yesterday: 73 °F (at 4:53 AM)
Average temperature yesterday: 84 °F

Past Weeks' High & Low Weather Summary

 TemperatureHumidityPressure
High95 °F (Jun 25, 3:53 PM)88% (Jun 17, 5:56 AM)30.15 "Hg (Jun 17, 5:56 AM)
Low68 °F (Jun 28, 5:53 AM)28% (Jun 28, 2:53 PM)29.63 "Hg (Jun 17, 2:53 PM)
Average83 °F64%29.97 "Hg
* Reported Jun 16 1:53 PM — Jul 1 1:53 PM, Arlington, Weather by CustomWeather, © 2015

Note: Actual official high and low records may vary slightly from our data, if they occured in-between our weather recording intervals... More about our weather records

Advertising

Arlington weather history for previous 24 hours

 ConditionsComfort  
Time TempWeatherWind HumidityBarometerVisibility
1:53 PM
Wed, Jul 1
90 °FPassing clouds.9 mph48%29.97 "Hg10 mi
12:53 PM88 °FPassing clouds.14 mph52%29.98 "Hg10 mi
11:53 AM87 °FSunny.8 mph55%29.99 "Hg10 mi
10:53 AM88 °FSunny.10 mph54%29.99 "Hg10 mi
9:53 AM83 °FSunny.8 mph61%29.99 "Hg10 mi
8:53 AM80 °FSunny.7 mph67%29.98 "Hg10 mi
7:53 AM76 °FSunny.7 mph80%29.98 "Hg10 mi
6:53 AM74 °FClear.7 mph85%29.98 "Hg10 mi
5:53 AM74 °FClear.7 mph85%29.97 "Hg10 mi
4:53 AM75 °FClear.7 mph82%29.96 "Hg10 mi
3:53 AM75 °FClear.9 mph82%29.97 "Hg10 mi
2:53 AM75 °FClear.8 mph82%29.98 "Hg10 mi
1:53 AM76 °FClear.8 mph77%29.97 "Hg10 mi
12:53 AM77 °FClear.7 mph77%29.98 "Hg10 mi
10:53 PM
Tue, Jun 30
81 °FClear.9 mph69%29.98 "Hg10 mi
9:53 PM85 °FOvercast.16 mph63%29.96 "Hg10 mi
8:53 PM87 °FSunny.8 mph57%29.94 "Hg10 mi
7:53 PM89 °FSunny.14 mph53%29.91 "Hg10 mi
6:53 PM90 °FSunny.12 mph48%29.90 "Hg10 mi
5:53 PM93 °FPartly sunny.13 mph46%29.90 "Hg10 mi
4:53 PM93 °FPassing clouds.5 mph44%29.90 "Hg10 mi
3:53 PM94 °FSunny.No wind41%29.92 "Hg10 mi
Weather by CustomWeather, © 2015

See weather overviewHow to use our weather pages